| time (UTC) | temp F | wind direction | speed MPH | gust MPH | rain 1hr in | rain 24hr in | rain mn in | humidity % | barometer mb |
| 20260509203250 | 74 | 246 | 1.0 | 5.0 | 0.00 | 0.00 | 0.00 | 60 | 968.3 |
| 20260509202236 | 74 | 215 | 0.0 | 4.0 | 0.00 | 0.00 | 0.00 | 60 | 968.3 |
| 20260509200108 | 73 | 219 | 1.0 | 4.0 | 0.00 | 0.00 | 0.00 | 62 | 968.4 |
| 20260509195105 | 73 | 219 | 0.0 | 8.0 | 0.00 | 0.00 | 0.00 | 62 | 968.4 |
| 20260509194126 | 73 | 209 | 1.0 | 8.0 | 0.00 | 0.00 | 0.00 | 64 | 968.4 |
| 20260509193115 | 73 | 204 | 1.0 | 5.0 | 0.00 | 0.00 | 0.00 | 63 | 968.6 |
| 20260509191023 | 72 | 225 | 1.0 | 5.0 | 0.00 | 0.00 | 0.00 | 64 | 968.8 |
| 20260509185949 | 72 | 228 | 1.0 | 6.0 | 0.00 | 0.00 | 0.00 | 67 | 968.8 |
| 20260509184919 | 72 | 220 | 1.0 | 6.0 | 0.00 | 0.00 | 0.00 | 65 | 968.9 |
| 20260509183851 | 71 | 199 | 1.0 | 5.0 | 0.00 | 0.00 | 0.00 | 66 | 968.9 |
| 20260509182851 | 71 | 215 | 1.0 | 5.0 | 0.00 | 0.00 | 0.00 | 67 | 968.9 |
| 20260509181903 | 70 | 224 | 1.0 | 4.0 | 0.00 | 0.00 | 0.00 | 68 | 969.0 |
| 20260509180834 | 70 | 169 | 1.0 | 4.0 | 0.00 | 0.00 | 0.00 | 68 | 969.1 |
| 20260509175812 | 68 | 178 | 1.0 | 5.0 | 0.00 | 0.00 | 0.00 | 72 | 969.2 |
| 20260509174737 | 68 | 229 | 1.0 | 5.0 | 0.00 | 0.00 | 0.00 | 72 | 969.2 |
| 20260509173744 | 67 | 206 | 0.0 | 3.0 | 0.00 | 0.00 | 0.00 | 74 | 969.2 |
| 20260509172710 | 65 | 196 | 0.0 | 4.0 | 0.00 | 0.00 | 0.00 | 80 | 969.1 |
| 20260509171647 | 64 | 154 | 0.0 | 4.0 | 0.00 | 0.00 | 0.00 | 91 | 969.1 |
| 20260509170706 | 63 | 173 | 0.0 | 2.0 | 0.00 | 0.00 | 0.00 | 98 | 969.0 |
| 20260509165642 | 61 | 215 | 0.0 | 3.0 | 0.00 | 0.00 | 0.00 | 99 | 968.9 |
| 20260509164641 | 61 | 207 | 0.0 | 2.0 | 0.00 | 0.00 | 0.00 | 100 | 968.9 |
| 20260509162504 | 58 | 219 | 0.0 | 0.0 | 0.00 | 0.00 | 0.00 | 100 | 969.1 |
| 20260509161502 | 58 | 219 | 0.0 | 0.0 | 0.00 | 0.00 | 0.00 | 100 | 969.0 |
| 20260509160520 | 58 | 219 | 0.0 | 0.0 | 0.00 | 0.00 | 0.00 | 100 | 969.2 |
| 20260509155505 | 58 | 219 | 0.0 | 0.0 | 0.00 | 0.00 | 0.00 | 100 | 969.1 |
| 20260509153401 | 57 | 219 | 0.0 | 0.0 | 0.00 | 0.00 | 0.00 | 100 | 969.3 |
| 20260509152336 | 57 | 219 | 0.0 | 0.0 | 0.00 | 0.00 | 0.00 | 100 | 969.2 |
| 20260509151343 | 57 | 219 | 0.0 | 0.0 | 0.00 | 0.00 | 0.00 | 100 | 969.1 |
| 20260509150308 | 57 | 219 | 0.0 | 0.0 | 0.00 | 0.00 | 0.00 | 100 | 969.1 |
| 20260509145247 | 57 | 219 | 0.0 | 0.0 | 0.00 | 0.00 | 0.00 | 100 | 969.1 |
| 20260509144242 | 57 | 219 | 0.0 | 0.0 | 0.00 | 0.00 | 0.00 | 100 | 969.1 |
| 20260509143227 | 56 | 219 | 0.0 | 0.0 | 0.00 | 0.00 | 0.00 | 100 | 969.0 |
| 20260509142247 | 56 | 219 | 0.0 | 0.0 | 0.00 | 0.00 | 0.00 | 100 | 969.1 |
| 20260509141308 | 56 | 219 | 0.0 | 0.0 | 0.00 | 0.00 | 0.00 | 100 | 969.0 |
| 20260509140303 | 56 | 219 | 0.0 | 0.0 | 0.00 | 0.00 | 0.00 | 100 | 968.9 |
| 20260509135241 | 56 | 219 | 0.0 | 0.0 | 0.00 | 0.00 | 0.00 | 100 | 968.9 |
| 20260509134224 | 56 | 219 | 0.0 | 0.0 | 0.00 | 0.00 | 0.00 | 100 | 968.7 |
| 20260509133229 | 56 | 219 | 0.0 | 0.0 | 0.00 | 0.00 | 0.00 | 100 | 968.6 |
| 20260509132240 | 56 | 219 | 0.0 | 0.0 | 0.00 | 0.00 | 0.00 | 100 | 968.6 |
| 20260509131208 | 56 | 219 | 0.0 | 0.0 | 0.00 | 0.00 | 0.00 | 100 | 968.7 |
| 20260509130145 | 56 | 219 | 0.0 | 0.0 | 0.00 | 0.00 | 0.00 | 100 | 968.6 |
| 20260509125134 | 56 | 219 | 0.0 | 0.0 | 0.00 | 0.00 | 0.00 | 100 | 968.5 |
| 20260509121751 | 56 | 219 | 0.0 | 0.0 | 0.00 | 0.00 | 0.00 | 99 | 968.3 |
| 20260509120746 | 56 | 219 | 0.0 | 0.0 | 0.00 | 0.00 | 0.00 | 99 | 968.3 |
| 20260509115728 | 56 | 219 | 0.0 | 0.0 | 0.00 | 0.00 | 0.00 | 99 | 968.3 |
| 20260509114724 | 56 | 219 | 0.0 | 0.0 | 0.00 | 0.00 | 0.00 | 99 | 968.4 |
| 20260509112510 | 56 | 219 | 0.0 | 0.0 | 0.00 | 0.00 | 0.00 | 99 | 968.4 |
| 20260509111506 | 56 | 219 | 0.0 | 0.0 | 0.00 | 0.00 | 0.00 | 99 | 968.4 |
| 20260509110512 | 56 | 219 | 0.0 | 0.0 | 0.00 | 0.00 | 0.00 | 99 | 968.4 |
| 20260509104335 | 56 | 215 | 0.0 | 0.0 | 0.00 | 0.00 | 0.00 | 99 | 968.4 |
| 20260509103343 | 56 | 215 | 0.0 | 0.0 | 0.00 | 0.00 | 0.00 | 99 | 968.5 |
| 20260509102311 | 56 | 215 | 0.0 | 0.0 | 0.00 | 0.00 | 0.00 | 99 | 968.4 |
| 20260509101242 | 56 | 215 | 0.0 | 0.0 | 0.00 | 0.00 | 0.00 | 99 | 968.5 |
| 20260509095109 | 56 | 215 | 0.0 | 0.0 | 0.00 | 0.00 | 0.00 | 99 | 968.7 |
| 20260509092906 | 56 | 215 | 0.0 | 0.0 | 0.00 | 0.00 | 0.00 | 98 | 968.6 |
| 20260509091914 | 56 | 215 | 0.0 | 0.0 | 0.00 | 0.00 | 0.00 | 98 | 968.7 |
| 20260509090936 | 56 | 215 | 0.0 | 0.0 | 0.00 | 0.00 | 0.00 | 98 | 968.8 |
| 20260509084837 | 56 | 215 | 0.0 | 0.0 | 0.00 | 0.00 | 0.00 | 98 | 968.9 |
| 20260509083854 | 56 | 215 | 0.0 | 0.0 | 0.00 | 0.00 | 0.00 | 98 | 968.9 |
| 20260509082857 | 56 | 215 | 0.0 | 1.0 | 0.00 | 0.00 | 0.00 | 98 | 969.0 |
| 20260509081837 | 56 | 215 | 0.0 | 0.0 | 0.00 | 0.00 | 0.00 | 98 | 969.0 |
| 20260509075658 | 56 | 215 | 0.0 | 0.0 | 0.00 | 0.00 | 0.00 | 98 | 969.3 |
| 20260509074649 | 55 | 215 | 0.0 | 1.0 | 0.00 | 0.00 | 0.00 | 98 | 969.3 |
| 20260509073645 | 55 | 215 | 0.0 | 0.0 | 0.00 | 0.00 | 0.00 | 98 | 969.3 |
| 20260509072624 | 55 | 215 | 0.0 | 0.0 | 0.00 | 0.00 | 0.00 | 98 | 969.3 |
| 20260509071628 | 55 | 215 | 0.0 | 0.0 | 0.00 | 0.00 | 0.00 | 98 | 969.3 |
| 20260509070624 | 55 | 215 | 0.0 | 0.0 | 0.00 | 0.00 | 0.00 | 98 | 969.4 |
| 20260509065631 | 55 | 215 | 0.0 | 0.0 | 0.00 | 0.00 | 0.00 | 97 | 969.6 |
| 20260509064620 | 55 | 215 | 0.0 | 0.0 | 0.00 | 0.00 | 0.00 | 97 | 969.5 |
| 20260509062417 | 55 | 215 | 0.0 | 0.0 | 0.00 | 0.00 | 0.00 | 97 | 969.5 |
| 20260509060249 | 55 | 215 | 0.0 | 0.0 | 0.00 | 0.00 | 0.00 | 97 | 969.6 |
| 20260509054156 | 54 | 215 | 0.0 | 0.0 | 0.00 | 0.00 | 0.00 | 96 | 969.6 |
| 20260509053218 | 55 | 215 | 0.0 | 0.0 | 0.00 | 0.00 | 0.00 | 96 | 969.7 |
| 20260509051119 | 55 | 215 | 0.0 | 0.0 | 0.00 | 0.00 | 0.00 | 96 | 969.7 |
| 20260509043755 | 56 | 215 | 0.0 | 0.0 | 0.00 | 0.00 | 0.00 | 96 | 969.4 |
| 20260509042816 | 56 | 215 | 0.0 | 0.0 | 0.00 | 0.00 | 0.00 | 95 | 969.4 |
| 20260509041839 | 56 | 215 | 0.0 | 0.0 | 0.00 | 0.00 | 0.00 | 95 | 969.3 |
| 20260509040804 | 56 | 215 | 0.0 | 0.0 | 0.00 | 0.00 | 0.00 | 95 | 969.2 |
| 20260509034711 | 56 | 215 | 0.0 | 0.0 | 0.00 | 0.00 | 0.00 | 93 | 969.1 |
| 20260509032603 | 56 | 215 | 0.0 | 0.0 | 0.00 | 0.00 | 0.00 | 92 | 968.9 |
| 20260509031544 | 57 | 215 | 0.0 | 1.0 | 0.00 | 0.00 | 0.00 | 91 | 968.8 |
| 20260509030510 | 57 | 215 | 0.0 | 0.0 | 0.00 | 0.00 | 0.00 | 90 | 968.7 |
| 20260509025535 | 57 | 215 | 0.0 | 0.0 | 0.00 | 0.00 | 0.00 | 90 | 968.6 |
| 20260509024525 | 57 | 215 | 0.0 | 0.0 | 0.00 | 0.00 | 0.00 | 89 | 968.6 |
| 20260509022432 | 58 | 227 | 0.0 | 4.0 | 0.00 | 0.00 | 0.00 | 87 | 968.3 |
| 20260509021423 | 59 | 209 | 0.0 | 4.0 | 0.00 | 0.00 | 0.00 | 85 | 968.4 |
| 20260509020437 | 60 | 205 | 1.0 | 3.0 | 0.00 | 0.00 | 0.00 | 84 | 968.4 |
| 20260509015407 | 61 | 183 | 0.0 | 6.0 | 0.00 | 0.00 | 0.00 | 82 | 968.2 |
| 20260509014338 | 61 | 190 | 2.0 | 6.0 | 0.00 | 0.00 | 0.00 | 81 | 968.1 |
| 20260509013343 | 62 | 207 | 1.0 | 5.0 | 0.00 | 0.00 | 0.00 | 79 | 968.3 |
| 20260509012335 | 63 | 192 | 1.0 | 5.0 | 0.00 | 0.00 | 0.00 | 77 | 968.2 |
| 20260509011330 | 64 | 188 | 0.0 | 5.0 | 0.00 | 0.00 | 0.00 | 76 | 968.3 |
| 20260509010312 | 65 | 219 | 1.0 | 6.0 | 0.00 | 0.00 | 0.00 | 75 | 968.1 |
| 20260509005250 | 65 | 226 | 1.0 | 6.0 | 0.00 | 0.00 | 0.00 | 75 | 968.3 |
| 20260509004257 | 66 | 213 | 1.0 | 5.0 | 0.00 | 0.00 | 0.00 | 73 | 968.3 |
| 20260509003225 | 67 | 245 | 0.0 | 5.0 | 0.00 | 0.00 | 0.00 | 71 | 968.3 |
| 20260509002207 | 67 | 174 | 1.0 | 4.0 | 0.00 | 0.00 | 0.00 | 70 | 968.3 |
| 20260509001138 | 68 | 226 | 0.0 | 4.0 | 0.00 | 0.00 | 0.00 | 70 | 968.4 |
| 20260509000136 | 68 | 233 | 0.0 | 5.0 | 0.00 | 0.00 | 0.00 | 69 | 968.4 |
| 20260508235134 | 68 | 262 | 1.0 | 7.0 | 0.00 | 0.00 | 0.00 | 69 | 968.5 |
| 20260508234128 | 68 | 239 | 1.0 | 7.0 | 0.00 | 0.00 | 0.00 | 69 | 968.4 |
| 20260508233104 | 69 | 194 | 0.0 | 3.0 | 0.00 | 0.00 | 0.00 | 67 | 968.4 |
| 20260508232122 | 69 | 178 | 1.0 | 4.0 | 0.00 | 0.00 | 0.00 | 67 | 968.5 |
| 20260508231119 | 70 | 211 | 0.0 | 4.0 | 0.00 | 0.00 | 0.00 | 66 | 968.6 |
| 20260508225000 | 70 | 237 | 0.0 | 4.0 | 0.00 | 0.00 | 0.00 | 66 | 968.9 |
| 20260508223945 | 70 | 250 | 1.0 | 5.0 | 0.00 | 0.00 | 0.00 | 66 | 969.0 |
| 20260508222930 | 69 | 196 | 1.0 | 5.0 | 0.00 | 0.00 | 0.00 | 66 | 969.1 |
| 20260508221942 | 69 | 244 | 1.0 | 4.0 | 0.00 | 0.00 | 0.00 | 67 | 969.2 |
| 20260508220945 | 69 | 186 | 1.0 | 4.0 | 0.00 | 0.00 | 0.00 | 68 | 969.4 |
| 20260508215929 | 69 | 248 | 1.0 | 4.0 | 0.00 | 0.00 | 0.00 | 67 | 969.5 |
| 20260508214948 | 70 | 211 | 1.0 | 5.0 | 0.00 | 0.00 | 0.00 | 66 | 969.7 |
| 20260508213957 | 70 | 267 | 1.0 | 5.0 | 0.00 | 0.00 | 0.00 | 66 | 969.7 |
| 20260508211906 | 70 | 281 | 1.0 | 5.0 | 0.00 | 0.00 | 0.00 | 66 | 969.8 |
| 20260508210901 | 71 | 163 | 0.0 | 6.0 | 0.00 | 0.00 | 0.00 | 65 | 969.9 |
| 20260508205907 | 70 | 212 | 1.0 | 6.0 | 0.00 | 0.00 | 0.00 | 66 | 969.9 |
| 20260508204924 | 70 | 265 | 1.0 | 6.0 | 0.00 | 0.00 | 0.00 | 66 | 970.0 |
| 20260508203921 | 70 | 223 | 0.0 | 6.0 | 0.00 | 0.00 | 0.00 | 66 | 970.1 |